Location: Marcé
(47.5801°N, 0.3280°W)
Time: 19:12:05
(UTC+01:00)

Tiros 1 - Pass Details

Date: 30 November 2021
Orbit: 629 x 664 km, 48.4° (Epoch: 26 January)

Event Time Altitude Azimuth Distance (km) Brightness Sun altitude
Rises 00:24:17 0° 276° (W) 2,953 - -63.6°
Reaches altitude 10° 00:26:37 10° 277° (W) 2,048 - -63.6°
Maximum altitude 00:31:21 82° 6° (N) 664 - -63.8°
Drops below altitude 10° 00:36:09 10° 94° (E) 2,068 - -63.9°
Sets 00:38:30 0° 95° (E) 2,984 - -64.0°
